Hourly Data Report for December 25, 2019

CARBERRY CS
MANITOBA
Current Station Operator: ECCC - MSC

49°54'20.900" N
99°21'26.800" W
383.50 m
5010547
71170
WZE

Download Data

Hourly Data (December 2019)
Hourly Data Report for December 25, 2019
TIME
LST
Temp Definition
°C
Dew Point Definition
°C
Rel Hum Definition
%
Precip. Amount Definition
mm

Wind Dir Definition
10's deg

Wind Spd Definition
km/h
Visibility Definition
km
Stn Press Definition
kPa
Hmdx Definition


Wind Chill Definition


Weather Definition


00:00 -8.0 -8.8 94 0.0 5 14   96.85   -14 LegendNANA
01:00 -8.5 -9.4 93 0.0 5 13   96.84   -14 LegendNANA
02:00 -9.4 -11.1 88 0.0 2 10   96.87   -15 LegendNANA
03:00 -11.8 -12.6 94 0.0 3 11   96.83   -18 LegendNANA
04:00 -10.9 -11.9 92 0.0 4 7   96.79   -15 LegendNANA
05:00 -10.4 -11.8 89 0.0 5 6   96.82   -14 LegendNANA
06:00 -10.6 -11.4 94 0.0 3 9   96.78   -16 LegendNANA
07:00 -10.6 -11.3 95 0.0 4 10   96.75   -16 LegendNANA
08:00 -10.5 -11.2 94 0.0 3 5   96.74   -14 LegendNANA
09:00 -10.1 -10.7 95 0.0 7 9   96.81   -15 LegendNANA
10:00 -10.0 -10.8 93 0.0 6 11   96.82   -16 LegendNANA
11:00 -9.9 -10.8 93 0.0 9 10   96.84   -15 LegendNANA
12:00 -9.7 -10.5 93 0.0 4 7   96.79   -14 LegendNANA
13:00 -9.4 -10.6 91 0.0 4 5   96.75   -12 LegendNANA
14:00 -9.4 -10.5 91 0.0 5 6   96.69   -13 LegendNANA
15:00 -9.3 -10.2 93 0.0 6 6   96.68   -13 LegendNANA
16:00 -9.2 -10.0 94 0.0 2 2   96.71   -10 LegendNANA
17:00 -9.2 -9.8 96 0.0 4 4   96.70   -11 LegendNANA
18:00 -9.3 -9.8 96 0.0 2 6   96.74   -13 LegendNANA
19:00 -9.4 -10.0 95 0.0 1 2   96.74   -11 LegendNANA
20:00 -9.4 -9.9 96 0.0 31 5   96.72   -12 LegendNANA
21:00 -9.4 -10.0 96 0.0 30 7   96.71   -13 LegendNANA
22:00 -9.7 -10.6 94 0.0 30 10   96.72   -15 LegendNANA
23:00 -9.8 -10.7 93 0.0 27 7   96.69   -14 LegendNANA

Notes on Data Quality.

Legend

  • E = Estimated
  • M = Missing
  • NA = Not Available*
  • [empty] = Indicates an unobserved value
Date modified: